Location: Charlotte
(35.2269°N, 80.8433°W)
Time: 04:26:30
(UTC-04:00)

ISS - Visible Passes

Search period start: 31 October 2014 00:00
Search period end: 09 November 2014 23:00
Orbit: 412 x 417 km, 51.6° (Epoch: 30 October)

Date Brightness Start Highest point End Pass type
(mag) Time Alt. Az. Time Alt. Az. Time Alt. Az.
06 Nov -0.6 06:20:22 10° S 06:23:04 23° SE 06:25:46 10° ENE visible
07 Nov 0.0 05:32:25 10° SSE 05:33:49 12° SE 05:35:14 10° ESE visible
08 Nov -3.2 06:17:23 10° SW 06:20:40 80° SE 06:23:59 10° NE visible
09 Nov -1.9 05:28:10 10° SSW 05:31:15 38° SE 05:34:21 10° ENE visible
